Zurück zum Katalog

DELTA 2 R/B

AktivVLEO
NORAD 27872·ROCKET BODY·🇺🇸 United States

Gestartet Aug 25, 2003 von Cape Canaveral Space Force Station

Loading…

Nächste Überflüge (nächste 24 Stunden)

TLE

VeraltetSource: Space-Track

Epoche: Aug 25, 2003, 06:16 UTC

1 27872U 03038B   03237.26117166 +.00001068 -33762-5 +00000-0 0  9997
2 27872 031.4831 218.4721 0014323 289.3337 338.6175 16.42059481000004

Verfolge DELTA 2 R/B in Echtzeit mit AllMySat

Download on the App Store